Miscellaneous Local Product
Issued by NWS North Platte, NE

Home | Current Version | Previous Version | Graphics & Text | Print | Product List | Glossary On
Versions: 1 2 3 4 5 6 7 8 9 10 11 12 13 14 15 16 17 18 19 20 21 22 23 24 25 26 27 28 29 30 31 32 33 34 35 36 37 38 39 40 41 42 43 44 45 46 47 48 49 50
000
AXUS43 KLBF 221510
MISLBF


WESTERN AND NORTH CENTRAL NEBRASKA HOURLY WEATHER ROUNDUP
NATIONAL WEATHER SERVICE NORTH PLATTE NE
900 AM CST MON DEC 22 2014

***STATIONS NOT REPORTING VARIABLES SUCH AS SKY/WEATHER OR
PRESSURE ARE PROVIDED BY THE NEBRASKA DEPARTMENT OF
ROADS...RAWS...AND APRS NETWORKS...AND ARE NOT UNDER
NATIONAL WEATHER SERVICE QUALITY CONTROL***

...OBSERVATIONS IN AND NEAR THE EASTERN PANHANDLE OF NEBRASKA...

CITY           SKY/WX    TMP DP  RH WIND       PRES   REMARKS
PINE RIDGE     PTCLDY    35  27  72 W12       29.60S WCI  27
CHADRON        MOCLDY    34  27  75 W18G28    29.65R WCI  23
ALLIANCE       PTCLDY    31  24  75 NW16      29.63F WCI  20
SIDNEY         PTCLDY    31  24  75 NW13      29.67F WCI  21
WHITECLAY        N/A     33  26  73 W20         N/A  WCI  22
CRESCENT LAKE    N/A     34  25  68 NW16        N/A  WCI  24
LISCO            N/A     34  27  75 W14         N/A  WCI  24
BIG SPRINGS      N/A     35  32  89 W7          N/A  WCI  29
$$

...OBSERVATIONS IN NORTH CENTRAL NEBRASKA...

CITY           SKY/WX    TMP DP  RH WIND       PRES   REMARKS
VALENTINE      CLOUDY    38  31  76 W9        29.52S WCI  31
THEDFORD       PTCLDY    37  32  84 W14G20    29.54S WCI  28
AINSWORTH      CLOUDY    37  32  83 W9        29.50F WCI  30
O`NEILL        CLOUDY    39  37  93 NW15G21   29.48S WCI  30
BROKEN BOW     CLOUDY    39  33  79 W15       29.53S WCI  31
BROWNLEE         N/A     38  33  82 W14         N/A  WCI  29
SPRINGVIEW       N/A     39  34  81 W9G20       N/A  WCI  33
BREWSTER         N/A     36  34  90 W8          N/A  WCI  30
ROSE             N/A     38  37  94 SW10        N/A  WCI  31
SARGENT          N/A     39  35  86 MISG        N/A
COMSTOCK         N/A     41  36  81 NW15        N/A
CHAMBERS         N/A     39  36  90 W7          N/A  WCI  34
EWING            N/A     38  37  97 CALM        N/A
$$

...OBSERVATIONS IN SOUTHWEST NEBRASKA AND FAR NORTHEAST COLORADO...

CITY           SKY/WX    TMP DP  RH WIND       PRES   REMARKS
WRAY           FAIR      36  31  82 W16G23    29.69S WCI  26
HOLYOKE        FAIR      37  30  75 NW12G21   29.67F WCI  30
IMPERIAL       CLOUDY    37  30  75 W14       29.65S WCI  28
OGALLALA       MOCLDY    36  29  77 W13G18    29.64S WCI  27
NORTH PLATTE   MOCLDY    36  32  85 W8        29.59S WCI  30
MCCOOK         CLOUDY    38  31  76 W13       29.63R WCI  30
LEXINGTON      CLOUDY    37  34  87 NW14      29.57S WCI  29
PAXTON           N/A     37  32  83 W6          N/A  WCI  32
BRADY            N/A     35  32  88 MISG        N/A
GOTHENBURG       N/A     38  33  81 W8          N/A  WCI  32
CALLAWAY         N/A     35  33  93 W14         N/A  WCI  26
$$

...NORTH PLATTE AREA...

CITY           SKY/WX    TMP DP  RH WIND       PRES   REMARKS
AIRPORT        MOCLDY    36  32  85 W8        29.59S WCI  30
DOWNTOWN         N/A     36  31  82 NW5         N/A  WCI  32
$$

...SOME WEATHER OBSERVATIONS FROM AROUND THE REGION...

CITY           SKY/WX    TMP DP  RH WIND       PRES   REMARKS
DENVER         MOCLDY    28  23  81 S3        29.73F
LARAMIE        CLOUDY    25  14  63 W16       29.70F WCI  12
CHEYENNE       PTCLDY    25  14  63 N10       29.70F WCI  15
SCOTTSBLUFF    MOCLDY    32  26  78 NW9       29.69S WCI  24
RAPID CITY     CLOUDY    41  20  43 NW24G38   29.54F
PIERRE         CLOUDY    37  34  89 NW15      29.45S WCI  28
WINNER         CLOUDY    39  35  86 NW16      29.48S WCI  30
SIOUX FALLS    LGT RAIN  40  39  97 S9        29.45S WCI  34
OMAHA          LGT RAIN  42  40  92 SE13      29.53F FOG
GRAND ISLAND   CLOUDY    40  36  86 NW13      29.53S WCI  32
KANSAS CITY    LGT RAIN  42  41  96 S10       29.57F FOG
WICHITA        FOG       46  44  93 SW5       29.57R VSB 1/4
HAYS           CLOUDY    43  28  56 NW15G23   29.61R
LIBERAL        MOSUNNY   39  30  70 NW17      29.72S WCI  30
GOODLAND       CLOUDY    38  29  70 NW24G31   29.70R WCI  27
$$



USA.gov is the U.S. government's official web portal to all federal, state and local government web resources and services.